Total_Precipitation_Accumulation
0.62 0.64 0.68 0.70 0.74 0.84 0.96 1.03 1.06 1.06 1.04 1.11 1.19 1.24 1.22 1.21 1.21 1.17 1.10 1.04 0.99 0.94 0.91 0.94 0.95 0.95 1.02 1.05 1.09 1.18 1.29 1.43 1.48 1.21 1.03 1.02 1.09 1.11 1.12 1.02 0.97 0.98 0.97
0.49 0.49 0.52 0.55 0.57 0.63 0.73 0.81 0.86 0.91 0.93 0.96 0.94 0.95 1.00 1.03 1.05 1.07 1.03 0.98 0.93 0.89 0.86 0.87 0.88 0.90 0.97 1.02 1.09 1.16 1.22 1.30 1.35 1.25 1.05 0.96 0.91 0.86 0.85 0.82 0.76 0.73 0.72
0.41 0.42 0.42 0.43 0.43 0.47 0.52 0.58 0.60 0.66 0.76 0.82 0.82 0.80 0.78 0.76 0.80 0.86 0.90 0.92 0.91 0.87 0.87 0.89 0.90 0.93 0.97 1.01 1.08 1.14 1.15 1.13 1.12 1.05 0.91 0.77 0.71 0.67 0.69 0.68 0.64 0.63 0.60
0.35 0.37 0.38 0.37 0.38 0.40 0.40 0.42 0.43 0.45 0.50 0.54 0.57 0.61 0.65 0.65 0.64 0.66 0.71 0.78 0.85 0.89 0.90 0.92 0.94 1.02 1.09 1.12 1.13 1.12 1.09 1.05 0.99 0.94 0.85 0.74 0.65 0.58 0.59 0.62 0.62 0.58 0.55
0.34 0.31 0.31 0.34 0.35 0.34 0.33 0.31 0.29 0.28 0.30 0.34 0.39 0.43 0.48 0.51 0.55 0.58 0.60 0.65 0.70 0.77 0.86 0.93 0.98 1.07 1.10 1.05 0.96 0.89 0.84 0.83 0.82 0.82 0.76 0.66 0.58 0.53 0.51 0.48 0.49 0.51 0.52
0.33 0.30 0.29 0.31 0.31 0.31 0.28 0.24 0.23 0.23 0.24 0.27 0.30 0.34 0.39 0.43 0.56 0.57 0.53 0.56 0.65 0.70 0.74 0.79 0.85 0.90 0.85 0.81 0.76 0.71 0.71 0.75 0.74 0.68 0.60 0.51 0.42 0.37 0.37 0.42 0.49 0.57 0.58
0.38 0.34 0.31 0.31 0.31 0.32 0.32 0.31 0.30 0.28 0.29 0.31 0.32 0.34 0.38 0.46 0.57 0.57 0.62 0.59 0.63 0.67 0.66 0.63 0.61 0.60 0.60 0.52 0.54 0.54 0.55 0.57 0.53 0.49 0.47 0.40 0.35 0.33 0.40 0.48 0.50 0.51 0.44
0.49 0.47 0.43 0.43 0.45 0.47 0.49 0.49 0.47 0.47 0.47 0.47 0.48 0.49 0.51 0.59 0.66 0.62 0.61 0.56 0.55 0.54 0.50 0.45 0.42 0.41 0.41 0.42 0.44 0.46 0.40 0.36 0.34 0.31 0.29 0.28 0.30 0.35 0.44 0.53 0.53 0.54 0.48
0.65 0.71 0.70 0.68 0.71 0.73 0.78 0.80 0.77 0.74 0.72 0.72 0.73 0.71 0.69 0.67 0.62 0.52 0.46 0.41 0.39 0.36 0.33 0.31 0.30 0.30 0.35 0.40 0.40 0.39 0.37 0.34 0.34 0.34 0.34 0.34 0.37 0.41 0.46 0.52 0.61 0.72 0.66
0.77 0.83 0.81 0.80 0.80 0.80 0.80 0.80 0.77 0.72 0.69 0.67 0.66 0.63 0.57 0.51 0.44 0.36 0.31 0.27 0.25 0.23 0.23 0.24 0.27 0.29 0.38 0.46 0.41 0.39 0.39 0.35 0.35 0.38 0.37 0.35 0.34 0.35 0.41 0.41 0.47 0.71 0.73
0.76 0.72 0.66 0.62 0.58 0.55 0.52 0.50 0.47 0.44 0.41 0.39 0.37 0.33 0.28 0.26 0.25 0.24 0.23 0.20 0.20 0.22 0.23 0.24 0.26 0.33 0.40 0.47 0.49 0.44 0.42 0.43 0.41 0.41 0.41 0.40 0.39 0.39 0.38 0.35 0.37 0.57 0.77
0.48 0.41 0.34 0.33 0.31 0.29 0.29 0.27 0.24 0.22 0.20 0.19 0.17 0.16 0.14 0.15 0.17 0.20 0.22 0.22 0.24 0.23 0.22 0.21 0.24 0.35 0.41 0.44 0.45 0.46 0.51 0.52 0.45 0.44 0.45 0.44 0.41 0.40 0.38 0.36 0.37 0.40 0.48
0.17 0.14 0.12 0.12 0.13 0.13 0.14 0.14 0.11 0.10 0.10 0.10 0.10 0.10 0.11 0.13 0.15 0.19 0.21 0.24 0.27 0.26 0.23 0.27 0.32 0.37 0.39 0.38 0.39 0.43 0.47 0.45 0.44 0.45 0.43 0.37 0.34 0.34 0.37 0.42 0.44 0.44 0.44
0.08 0.08 0.07 0.07 0.07 0.09 0.10 0.11 0.12 0.11 0.10 0.11 0.12 0.12 0.12 0.13 0.14 0.17 0.20 0.23 0.27 0.28 0.26 0.28 0.32 0.36 0.38 0.38 0.38 0.39 0.40 0.41 0.43 0.44 0.40 0.37 0.37 0.40 0.42 0.43 0.49 0.51 0.56
0.10 0.10 0.10 0.09 0.09 0.10 0.12 0.13 0.15 0.15 0.16 0.18 0.17 0.17 0.19 0.18 0.17 0.25 0.31 0.31 0.32 0.34 0.38 0.38 0.37 0.36 0.36 0.35 0.35 0.34 0.36 0.40 0.43 0.43 0.45 0.46 0.46 0.45 0.44 0.43 0.50 0.58 0.62
0.13 0.14 0.15 0.16 0.15 0.15 0.15 0.16 0.19 0.21 0.23 0.24 0.23 0.23 0.22 0.23 0.27 0.33 0.36 0.38 0.40 0.47 0.52 0.44 0.36 0.33 0.32 0.32 0.33 0.35 0.35 0.38 0.41 0.46 0.52 0.55 0.56 0.56 0.54 0.50 0.54 0.62 0.61
0.19 0.21 0.22 0.22 0.21 0.22 0.23 0.23 0.23 0.24 0.28 0.28 0.26 0.26 0.25 0.27 0.31 0.33 0.36 0.39 0.43 0.49 0.48 0.36 0.29 0.29 0.31 0.33 0.35 0.38 0.39 0.37 0.44 0.54 0.59 0.60 0.64 0.66 0.65 0.63 0.61 0.64 0.63
0.16 0.19 0.21 0.21 0.22 0.23 0.24 0.25 0.27 0.27 0.26 0.24 0.25 0.28 0.30 0.32 0.34 0.36 0.41 0.48 0.46 0.42 0.35 0.29 0.28 0.30 0.34 0.38 0.40 0.43 0.45 0.46 0.52 0.57 0.59 0.62 0.68 0.76 0.75 0.69 0.66 0.69 0.72
0.16 0.18 0.21 0.23 0.24 0.25 0.26 0.27 0.27 0.27 0.26 0.24 0.24 0.27 0.34 0.40 0.42 0.43 0.45 0.45 0.38 0.31 0.27 0.26 0.29 0.34 0.38 0.43 0.46 0.49 0.53 0.56 0.55 0.59 0.60 0.61 0.68 0.82 0.78 0.65 0.67 0.69 0.77
0.18 0.23 0.28 0.28 0.28 0.28 0.29 0.31 0.31 0.30 0.29 0.27 0.26 0.28 0.39 0.50 0.47 0.40 0.37 0.34 0.32 0.29 0.28 0.31 0.33 0.38 0.44 0.49 0.52 0.56 0.59 0.57 0.57 0.61 0.60 0.62 0.68 0.80 0.81 0.72 0.72 0.77 0.73
0.21 0.24 0.32 0.31 0.28 0.29 0.31 0.33 0.34 0.35 0.34 0.30 0.27 0.33 0.52 0.59 0.48 0.38 0.35 0.34 0.35 0.36 0.38 0.41 0.42 0.44 0.49 0.53 0.56 0.57 0.59 0.55 0.55 0.60 0.63 0.65 0.71 0.78 0.73 0.75 0.75 0.76 0.83
0.23 0.23 0.26 0.29 0.29 0.31 0.36 0.38 0.40 0.39 0.35 0.33 0.30 0.35 0.51 0.50 0.42 0.39 0.38 0.37 0.37 0.40 0.45 0.52 0.52 0.48 0.52 0.61 0.67 0.69 0.63 0.55 0.53 0.61 0.67 0.67 0.71 0.74 0.76 0.81 0.83 0.89 0.92
0.25 0.26 0.27 0.27 0.29 0.33 0.37 0.34 0.35 0.36 0.35 0.34 0.34 0.36 0.40 0.41 0.38 0.38 0.39 0.40 0.42 0.45 0.47 0.53 0.54 0.49 0.48 0.57 0.67 0.80 0.81 0.65 0.60 0.72 0.88 0.88 0.86 0.88 0.94 0.97 0.91 0.89 0.80
0.25 0.27 0.28 0.28 0.29 0.31 0.31 0.30 0.31 0.33 0.36 0.37 0.37 0.36 0.36 0.37 0.38 0.38 0.40 0.43 0.45 0.46 0.48 0.51 0.52 0.49 0.49 0.56 0.60 0.64 0.70 0.78 0.97 1.09 1.23 1.42 1.32 1.14 1.08 1.00 0.87 0.80 0.79
0.26 0.29 0.31 0.33 0.34 0.34 0.34 0.34 0.33 0.34 0.36 0.38 0.38 0.37 0.36 0.37 0.38 0.37 0.39 0.42 0.45 0.46 0.45 0.47 0.50 0.51 0.52 0.54 0.56 0.58 0.64 0.79 1.06 1.42 1.57 1.50 1.27 1.07 1.05 0.99 0.87 0.82 0.81
0.28 0.31 0.34 0.36 0.37 0.37 0.38 0.37 0.36 0.37 0.38 0.39 0.40 0.40 0.40 0.40 0.39 0.40 0.42 0.44 0.45 0.44 0.43 0.44 0.45 0.49 0.53 0.55 0.52 0.56 0.66 0.74 0.83 1.00 1.31 1.40 1.23 1.05 1.04 1.10 0.96 0.91 0.89